Location: Newark
(48.9886°N, 1.2358°E)
Time: 21:47:39
(UTC+00:00)

Transit 4A - Pass Details

Date: 23 November 2019
Orbit: 870 x 975 km, 66.8° (Epoch: 11 December)

Event Time Altitude Azimuth Distance (km) Brightness Sun altitude
Exits shadow 04:12:28 27° 360° (N) 1,633 9.1 -29.6°
Maximum altitude 04:14:37 36° 40° (NE) 1,379 9.0 -29.3°
Drops below altitude 10° 04:19:57 10° 106° (ESE) 2,525 11.0 -28.4°
Sets 04:22:38 0° 115° (ESE) 3,454 11.9 -27.9°
